FLOCK 3P-32

Last updated on Feb. 14, 2018, 4:20 p.m. UTC

1 42023U 17008CD  18045.17695710  .00001284  00000-0  56099-4 0  9999
2 42023  97.4660 110.7106 0009491  70.1542 290.0717 15.23911021 55374
UTC
Height (km)
Latitude
Longitude
Inclination
Orbital Period
UTC large
Height (km)
Speed (km/s)
/
Latitude / Longitude
Inclination (degrees)
Orbital Period (minutes)
Azimuth
Elevation
Range (km)
Doppler Factor
iOS Compass Heading
iOS Angle